sat.trackr.live / text

‹ back to catalog

UNKNOWN

NORAD 82453

UNKNOWN UNKNOWN UNKNOWN

§ Identity

Operator
Country
Launch date
Launch site
Launch vehicle
Mass (kg)
RCS (m²)

External: N2YO · Heavens-Above

§ Orbital elements

Epoch: 2026-09-18T08:53:52.853568Z

Period
116.15 min
Inclination
102.2144°
Eccentricity
0.0094446
Mean motion
12.39730648 rev/d
Perigee alt
1,433.3 km
Apogee alt
1,582.2 km
Semi-major
7,885.9 km
B*
4.2437e-4
RAAN
223.0300°
Arg perigee
51.8153°
Mean anomaly
309.1371°
Rev number
58,071

§ Raw data

UNKNOWN1 82453U          26261.37075062  .00000012  00000+0  42437-3 0  99942 82453 102.2144 223.0300 0094446  51.8153 309.1371 12.39730648580716

JSON: /api/v1/satellites/82453 · /tle

For live sub-satellite position, see the globe view (requires WebGL).

§ Visibility from observer

Set your observer location to see the next 7 days of passes ≥ 10°. The values pass through the URL so the page stays shareable.

No JS? Fill the form by hand. The geolocation button needs JavaScript.